Terug naar catalogus

CZ-6A DEB

ActiefPO
NORAD 61300·DEBRIS·🇨🇳 China

Gelanceerd Aug 6, 2024 vanaf Taiyuan Satellite Launch Center

Loading…

Volgende Passages (komende 24 uur)

TLE

VersSource: Space-Track

Epoch: Sep 14, 2026, 10:46 UTC

1 61300U 24140TM  26257.44879361  .00004952  00000-0  83396-3 0  9997
2 61300  89.0303 262.3028 0131653 315.9900  43.0890 14.63794632108990

Volg CZ-6A DEB in realtime met AllMySat

Download on the App Store